Johnstown, PA

6:03 PM EDT on May 26, 2017 (GMT -0400)
Johnstown-Cambria County

Weather History for KJST - June, 2013

Change the Weather History Date:

Saturday, June 8, 2013

  Actual Average Record
Temperature  
Mean Temperature 57 °F 63 °F  
Max Temperature 64 °F 72 °F 98 °F (1933)
Min Temperature 51 °F 54 °F 36 °F (1944)
Degree Days  
Heating Degree Days 8 4  
Month to date heating degree days 37  
Since 1 June heating degree days 37  
Since 1 July heating degree days 6646  
Cooling Degree Days 0 2  
Month to date cooling degree days 13  
Year to date cooling degree days 37  
Since 1 June cooling degree days 13  
Growing Degree Days 7 (Base 50)    
Moisture  
Dew Point 51 °F    
Average Humidity 88    
Maximum Humidity 100    
Minimum Humidity 65    
Precipitation  
Precipitation 0.01 in 0.15 in 1.59 in (1947)
Month to date precipitation 1.20  
Year to date precipitation 17.84  
Sea Level Pressure  
Sea Level Pressure 30.00 in    
Wind  
Wind Speed 8 mph (WNW)    
Max Wind Speed 12 mph    
Max Gust Speed -    
Visibility 6 miles    
Events Fog , Rain    
T = Trace of Precipitation, MM = Missing Value Source: NWS Daily Summary

Daily Weather History Graph

Daily Weather History Graph

Search for Another Location

Airport or City:

Trip Planner

Search our weather history database for the weather conditions in past years. The results will help you decide how hot, cold, wet, or windy it might be!

Date:

Astronomy

Jun. 08, 2013 Rise Set
Actual Time 5:45 AM EDT 8:43 PM EDT
Civil Twilight 5:12 AM EDT 9:16 PM EDT
Nautical Twilight 4:31 AM EDT 9:58 PM EDT
Astronomical Twilight 3:42 AM EDT 10:46 PM EDT
Moon 5:51 AM EDT (6/8) 8:44 PM EDT (6/8)
Length of Visible Light 16h 04m
Length of Day
14h 58m
New Moon, 0% of the Moon is Illuminated
Jun 8
New Moon
Jun 16
First Quarter
Jun 23
Full
Jun 30
Last Quarter
Jul 8
New

Hourly Weather History & Observations

Time (EDT) Temp. Dew Point Humidity Pressure Visibility Wind Dir Wind Speed Gust Speed Precip Events Conditions
12:54 AM 55.9 °F 55.0 °F 97% 29.82 in 0.2 mi WNW 10.4 mph - 0.00 in Fog Fog
1:54 AM 55.0 °F 54.0 °F 96% 29.84 in 0.2 mi WNW 11.5 mph - 0.00 in Fog Fog
2:54 AM 53.1 °F 53.1 °F 100% 29.85 in 0.2 mi WNW 8.1 mph - N/A Fog Fog
3:54 AM 52.0 °F 52.0 °F 100% 29.86 in 0.2 mi WNW 9.2 mph - N/A Fog Fog
4:54 AM 52.0 °F 51.1 °F 97% 29.88 in 0.2 mi West 9.2 mph - N/A Fog Fog
5:23 AM 51.8 °F 51.8 °F 100% 29.90 in 0.8 mi West 6.9 mph - 0.01 in   Mist
5:54 AM 51.1 °F 51.1 °F 100% 29.91 in 0.2 mi WNW 10.4 mph - 0.01 in Fog , Rain Light Rain
6:18 AM 51.8 °F 50.0 °F 94% 29.92 in 1.0 mi West 9.2 mph - 0.00 in   Mist
6:35 AM 51.8 °F 50.0 °F 94% 29.93 in 2.5 mi West 8.1 mph - 0.00 in   Overcast
6:41 AM 51.8 °F 50.0 °F 94% 29.94 in 0.8 mi West 6.9 mph - 0.00 in   Overcast
6:54 AM 51.1 °F 51.1 °F 100% 29.93 in 1.0 mi WNW 9.2 mph - 0.00 in   Overcast
7:12 AM 51.8 °F 51.8 °F 100% 29.94 in 0.2 mi West 8.1 mph - N/A Fog Fog
7:51 AM 51.8 °F 51.8 °F 100% 29.95 in 1.0 mi WNW 9.2 mph - N/A   Overcast
7:54 AM 51.1 °F 51.1 °F 100% 29.94 in 2.0 mi WNW 10.4 mph - N/A   Overcast
8:04 AM 51.8 °F 51.8 °F 100% 29.95 in 1.2 mi WNW 9.2 mph - N/A   Overcast
8:13 AM 51.8 °F 51.8 °F 100% 29.96 in 0.5 mi WNW 9.2 mph - N/A Fog Fog
8:30 AM 51.8 °F 50.0 °F 94% 29.97 in 2.0 mi WNW 9.2 mph - N/A   Overcast
8:38 AM 51.8 °F 51.8 °F 100% 29.97 in 3.0 mi WNW 8.1 mph - N/A   Overcast
8:54 AM 51.1 °F 50.0 °F 96% 29.98 in 3.0 mi WNW 8.1 mph - N/A   Overcast
9:39 AM 51.8 °F 51.8 °F 100% 30.01 in 2.5 mi West 4.6 mph - N/A   Overcast
9:45 AM 51.8 °F 50.0 °F 94% 30.01 in 3.0 mi West 5.8 mph - N/A   Overcast
9:54 AM 52.0 °F 50.0 °F 93% 30.00 in 5.0 mi WNW 5.8 mph - N/A   Overcast
10:17 AM 51.8 °F 50.0 °F 94% 30.01 in 10.0 mi West 4.6 mph - N/A   Overcast
10:30 AM 51.8 °F 51.8 °F 100% 30.01 in 6.0 mi West 4.6 mph - N/A   Overcast
10:54 AM 53.1 °F 51.1 °F 93% 30.01 in 10.0 mi West 8.1 mph - N/A   Overcast
11:06 AM 53.6 °F 51.8 °F 94% 30.02 in 10.0 mi West 6.9 mph - N/A   Overcast
11:14 AM 53.6 °F 51.8 °F 94% 30.02 in 10.0 mi West 5.8 mph - N/A   Overcast
11:28 AM 53.6 °F 51.8 °F 94% 30.02 in 10.0 mi West 4.6 mph - N/A   Overcast
11:54 AM 55.0 °F 50.0 °F 83% 30.03 in 10.0 mi WNW 8.1 mph - N/A   Overcast
12:01 PM 53.6 °F 50.0 °F 88% 30.04 in 10.0 mi West 8.1 mph - N/A   Overcast
12:54 PM 57.0 °F 51.1 °F 81% 30.03 in 10.0 mi West 9.2 mph - N/A   Overcast
1:54 PM 60.1 °F 51.1 °F 72% 30.02 in 10.0 mi West 9.2 mph - N/A   Mostly Cloudy
2:54 PM 60.1 °F 51.1 °F 72% 30.04 in 10.0 mi NW 10.4 mph - N/A   Mostly Cloudy
3:54 PM 62.1 °F 51.1 °F 67% 30.04 in 10.0 mi West 8.1 mph - N/A   Overcast
4:54 PM 62.1 °F 52.0 °F 70% 30.06 in 9.0 mi NW 8.1 mph - N/A   Mostly Cloudy
5:19 PM 62.6 °F 51.8 °F 68% 30.06 in 9.0 mi NW 6.9 mph - N/A   Overcast
5:45 PM 62.6 °F 51.8 °F 68% 30.06 in 10.0 mi NW 4.6 mph - N/A   Mostly Cloudy
5:54 PM 62.1 °F 50.0 °F 65% 30.06 in 10.0 mi West 6.9 mph - N/A   Scattered Clouds
6:31 PM 62.6 °F 51.8 °F 68% 30.07 in 10.0 mi West 6.9 mph - N/A   Mostly Cloudy
6:39 PM 62.6 °F 51.8 °F 68% 30.07 in 10.0 mi WNW 5.8 mph - N/A   Scattered Clouds
6:54 PM 63.0 °F 52.0 °F 67% 30.07 in 10.0 mi West 3.5 mph - N/A   Scattered Clouds
7:54 PM 62.1 °F 52.0 °F 70% 30.08 in 10.0 mi Calm Calm - N/A   Partly Cloudy
8:54 PM 57.9 °F 51.1 °F 78% 30.10 in 10.0 mi West 4.6 mph - N/A   Clear
9:54 PM 57.9 °F 51.1 °F 78% 30.13 in 10.0 mi West 3.5 mph - N/A   Clear
10:54 PM 57.9 °F 52.0 °F 81% 30.15 in 9.0 mi SW 3.5 mph - N/A   Clear
11:54 PM 55.0 °F 51.1 °F 86% 30.16 in 8.0 mi West 3.5 mph - N/A   Clear